When you browse on this site, cookies collect data to enhance your experience and personalize the content and advertising you see.
Visit our Privacy Policy to learn more. By continuing to use the site, you agree to this use of cookies and data.

Hourly Weather Aberdare

Today, 7 July, Tuesday

Time Temperature Precipitation Wind Pressure Humidity
00:00 +9°C° 0 mm 2 mps 745 mmHg 94%
01:00 +9°C° 0 mm 2 mps 745 mmHg 94%
02:00 +9°C° 0 mm 2 mps 744 mmHg 95%
03:00 +9°C° 0 mm 2 mps 744 mmHg 95%
04:00 +10°C° 0 mm 2 mps 744 mmHg 94%
05:00 +10°C° 0 mm 3 mps 744 mmHg 93%
06:00 +11°C° 0 mm 3 mps 744 mmHg 92%
07:00 +12°C° 0 mm 3 mps 743 mmHg 91%
08:00 +12°C° 0 mm 4 mps 743 mmHg 89%
09:00 +12°C° 0 mm 4 mps 743 mmHg 88%
10:00 +13°C° 0 mm 5 mps 743 mmHg 84%
11:00 +14°C° 0 mm 6 mps 743 mmHg 80%
12:00 +14°C° 0 mm 6 mps 742 mmHg 76%
13:00 +14°C° 0 mm 7 mps 742 mmHg 79%
14:00 +14°C° 0 mm 7 mps 742 mmHg 81%
15:00 +12°C° 0 mm 8 mps 741 mmHg 84%
16:00 +12°C° 0.4 mm 8 mps 741 mmHg 88%
17:00 +12°C° 0.4 mm 8 mps 740 mmHg 92%
18:00 +11°C° 0.4 mm 8 mps 740 mmHg 96%
19:00 +12°C° 0.3 mm 8 mps 740 mmHg 97%
20:00 +12°C° 0.3 mm 8 mps 740 mmHg 97%
21:00 +14°C° 0.3 mm 7 mps 739 mmHg 97%
22:00 +14°C° 0.4 mm 7 mps 739 mmHg 97%
23:00 +14°C° 0.4 mm 7 mps 739 mmHg 98%

Tomorrow, 8 July, Wednesday

Time Temperature Precipitation Wind Pressure Humidity
00:00 +14°C° 0.4 mm 7 mps 739 mmHg 98%
01:00 +14°C° 0.3 mm 6 mps 739 mmHg 98%
02:00 +14°C° 0.3 mm 6 mps 739 mmHg 98%
03:00 +14°C° 0.3 mm 5 mps 738 mmHg 98%
04:00 +14°C° 0.5 mm 4 mps 738 mmHg 98%
05:00 +14°C° 0.5 mm 3 mps 738 mmHg 98%
06:00 +15°C° 0.5 mm 2 mps 738 mmHg 98%
07:00 +15°C° 0.6 mm 2 mps 739 mmHg 98%
08:00 +15°C° 0.6 mm 2 mps 739 mmHg 98%
09:00 +15°C° 0.6 mm 1 mps 739 mmHg 98%
10:00 +15°C° 0.2 mm 1 mps 739 mmHg 97%
11:00 +15°C° 0.2 mm 1 mps 740 mmHg 96%
12:00 +15°C° 0.2 mm 2 mps 740 mmHg 95%
13:00 +16°C° 0 mm 2 mps 740 mmHg 94%
14:00 +16°C° 0 mm 3 mps 740 mmHg 94%
15:00 +16°C° 0 mm 3 mps 740 mmHg 93%
16:00 +16°C° 0.2 mm 3 mps 740 mmHg 95%
17:00 +15°C° 0.2 mm 4 mps 739 mmHg 96%
18:00 +14°C° 0.2 mm 4 mps 739 mmHg 97%
19:00 +14°C° 0.3 mm 4 mps 739 mmHg 97%
20:00 +14°C° 0.3 mm 5 mps 739 mmHg 98%
21:00 +14°C° 0.3 mm 5 mps 739 mmHg 98%
22:00 +14°C° 0.3 mm 5 mps 739 mmHg 98%
23:00 +14°C° 0.3 mm 6 mps 738 mmHg 98%

Day after tomorrow, 9 July, Thursday

Time Temperature Precipitation Wind Pressure Humidity
00:00 +14°C° 0.3 mm 6 mps 738 mmHg 98%
01:00 +14°C° 0.4 mm 6 mps 738 mmHg 98%
02:00 +14°C° 0.4 mm 6 mps 738 mmHg 98%
03:00 +14°C° 0.4 mm 6 mps 737 mmHg 98%
04:00 +14°C° 0.6 mm 5 mps 737 mmHg 98%
05:00 +14°C° 0.6 mm 5 mps 737 mmHg 98%
06:00 +15°C° 0.6 mm 5 mps 737 mmHg 98%
07:00 +15°C° 0.1 mm 5 mps 737 mmHg 97%
08:00 +15°C° 0.1 mm 5 mps 737 mmHg 97%
09:00 +15°C° 0.1 mm 5 mps 736 mmHg 97%
10:00 +15°C° 0.3 mm 5 mps 736 mmHg 97%
11:00 +15°C° 0.3 mm 6 mps 736 mmHg 96%
12:00 +15°C° 0.3 mm 6 mps 736 mmHg 96%
13:00 +15°C° 0.2 mm 6 mps 736 mmHg 96%
14:00 +15°C° 0.2 mm 6 mps 736 mmHg 97%
15:00 +15°C° 0.2 mm 6 mps 736 mmHg 97%
16:00 +15°C° 0.2 mm 5 mps 736 mmHg 97%
17:00 +14°C° 0.2 mm 5 mps 736 mmHg 97%
18:00 +14°C° 0.2 mm 4 mps 736 mmHg 96%
19:00 +14°C° 0 mm 4 mps 736 mmHg 96%
20:00 +13°C° 0 mm 5 mps 737 mmHg 95%
21:00 +12°C° 0 mm 5 mps 737 mmHg 95%
22:00 +10°C° 0 mm 5 mps 738 mmHg 94%
23:00 +9°C° 0 mm 5 mps 738 mmHg 93%

10 July, Friday

Time Temperature Precipitation Wind Pressure Humidity
00:00 +8°C° 0 mm 5 mps 738 mmHg 92%
01:00 +8°C° 0 mm 5 mps 739 mmHg 91%
02:00 +7°C° 0 mm 5 mps 739 mmHg 91%
03:00 +6°C° 0 mm 5 mps 739 mmHg 91%
04:00 +7°C° 0 mm 6 mps 740 mmHg 90%
05:00 +7°C° 0 mm 6 mps 740 mmHg 90%
06:00 +8°C° 0 mm 6 mps 741 mmHg 89%
07:00 +9°C° 0 mm 7 mps 741 mmHg 85%
08:00 +10°C° 0 mm 7 mps 742 mmHg 80%
09:00 +11°C° 0 mm 8 mps 742 mmHg 75%
10:00 +12°C° 0 mm 8 mps 743 mmHg 73%
11:00 +12°C° 0 mm 8 mps 743 mmHg 72%
12:00 +13°C° 0 mm 8 mps 744 mmHg 70%
13:00 +14°C° 0 mm 7 mps 744 mmHg 70%
14:00 +15°C° 0 mm 7 mps 744 mmHg 69%
15:00 +15°C° 0 mm 6 mps 744 mmHg 69%
16:00 +14°C° 0 mm 6 mps 744 mmHg 71%
17:00 +14°C° 0 mm 6 mps 744 mmHg 73%
18:00 +13°C° 0 mm 5 mps 745 mmHg 74%
19:00 +12°C° 0 mm 4 mps 745 mmHg 80%
20:00 +10°C° 0 mm 3 mps 746 mmHg 85%
21:00 +8°C° 0 mm 2 mps 746 mmHg 90%
22:00 +8°C° 0 mm 2 mps 746 mmHg 90%
23:00 +7°C° 0 mm 2 mps 746 mmHg 90%

11 July, Saturday

Time Temperature Precipitation Wind Pressure Humidity
00:00 +8°C° 0 mm 1 mps 746 mmHg 89%
01:00 +8°C° 0 mm 1 mps 746 mmHg 89%
02:00 +8°C° 0 mm 1 mps 746 mmHg 88%
03:00 +8°C° 0 mm 1 mps 746 mmHg 87%
04:00 +9°C° 0 mm 1 mps 747 mmHg 86%
05:00 +10°C° 0 mm 1 mps 747 mmHg 86%
06:00 +11°C° 0 mm 1 mps 747 mmHg 85%
07:00 +12°C° 0 mm 1 mps 747 mmHg 80%
08:00 +14°C° 0 mm 1 mps 747 mmHg 76%
09:00 +15°C° 0 mm 1 mps 748 mmHg 72%
10:00 +16°C° 0 mm 2 mps 748 mmHg 70%
11:00 +17°C° 0 mm 2 mps 748 mmHg 68%
12:00 +17°C° 0 mm 2 mps 748 mmHg 66%
13:00 +17°C° 0 mm 2 mps 748 mmHg 67%
14:00 +17°C° 0 mm 2 mps 748 mmHg 67%
15:00 +17°C° 0 mm 2 mps 748 mmHg 67%
16:00 +17°C° 0 mm 2 mps 748 mmHg 71%
17:00 +16°C° 0 mm 2 mps 747 mmHg 74%
18:00 +16°C° 0 mm 2 mps 747 mmHg 77%
19:00 +14°C° 0 mm 2 mps 747 mmHg 80%
20:00 +13°C° 0 mm 2 mps 748 mmHg 84%
21:00 +11°C° 0 mm 1 mps 748 mmHg 87%
22:00 +11°C° 0 mm 1 mps 748 mmHg 86%
23:00 +11°C° 0 mm 1 mps 748 mmHg 84%

12 July, Sunday

Time Temperature Precipitation Wind Pressure Humidity
00:00 +10°C° 0 mm 1 mps 748 mmHg 83%
01:00 +10°C° 0 mm 1 mps 748 mmHg 84%
02:00 +10°C° 0 mm 1 mps 747 mmHg 84%
03:00 +10°C° 0 mm 1 mps 747 mmHg 84%
04:00 +11°C° 0 mm 1 mps 748 mmHg 84%
05:00 +12°C° 0 mm 1 mps 748 mmHg 84%
06:00 +12°C° 0 mm 1 mps 748 mmHg 83%
07:00 +14°C° 0 mm 1 mps 748 mmHg 80%
08:00 +15°C° 0 mm 1 mps 748 mmHg 77%
09:00 +18°C° 0 mm 1 mps 748 mmHg 73%
10:00 +17°C° 0 mm 2 mps 748 mmHg 70%
11:00 +18°C° 0 mm 2 mps 748 mmHg 67%
12:00 +19°C° 0 mm 2 mps 748 mmHg 64%
13:00 +19°C° 0 mm 2 mps 748 mmHg 64%
14:00 +20°C° 0 mm 2 mps 748 mmHg 64%
15:00 +20°C° 0 mm 2 mps 748 mmHg 63%
16:00 +19°C° 0 mm 2 mps 748 mmHg 67%
17:00 +19°C° 0 mm 2 mps 747 mmHg 70%
18:00 +18°C° 0 mm 2 mps 747 mmHg 73%
19:00 +17°C° 0 mm 2 mps 747 mmHg 77%
20:00 +15°C° 0 mm 1 mps 747 mmHg 80%
21:00 +13°C° 0 mm 1 mps 747 mmHg 84%
22:00 +12°C° 0 mm 1 mps 747 mmHg 83%
23:00 +12°C° 0 mm 1 mps 747 mmHg 83%
Show more